Regional Weather Roundup
Issued by NWS Wakefield, VA

Home | Current Version | Previous Version | Graphics & Text | Print | Product List | Glossary On
Versions: 1 2 3 4 5 6 7 8 9 10 11 12 13 14 15 16 17 18 19 20 21 22 23 24 25 26 27 28 29 30 31 32 33 34 35 36 37 38 39 40 41 42 43 44 45 46 47 48 49 50
000
ASUS41 KAKQ 250910
RWRAKQ

REGIONAL WEATHER ROUNDUP
NATIONAL WEATHER SERVICE WAKEFIELD VA
400 AM EST SUN JAN 25 2015

Note: "fair" indicates few or no clouds below 12,000 feet with no
significant weather and/or obstructions to visibility. * = Denotes
station may not report precipitation (e.g., rain,snow,etc.),
thunder or fog.

VAZ042-051-052>054-056-251000-
NORTHERN VIRGINIA

CITY           SKY/WX    TMP DP  RH WIND       PRES   REMARKS
WASH NATIONAL  MOCLDY    40  26  57 W5        29.75S
DULLES         CLOUDY    36  27  69 CALM      29.74S
FORT BELVOIR   CLEAR     38  26  61 W5        29.76S
QUANTICO       PTCLDY    36  27  69 SW6       29.78S
FREDERICKSBRG* PTCLDY    33  29  86 SW6       29.79R
STAFFORD*      PTCLDY    32  26  80 CALM      29.82R
WARRENTON      MOCLDY    36  31  81 SW3       29.75S
CULPEPER*      MOCLDY    36  27  69 CALM      29.77R
MANASSAS*      MOCLDY    37  28  70 SW3       29.76S
LEESBURG*      CLOUDY    39  30  70 W7        29.74S
WINCHESTER     CLOUDY    39  23  52 W7        29.73R
FRONT ROYAL*   CLOUDY    37  27  65 SW5       29.72S
LURAY*         CLOUDY    37  30  75 S7        29.73F
$$

VAZ048-049-060>072-079>083-251000-
CENTRAL AND SOUTH CENTRAL VIRGINIA

CITY           SKY/WX    TMP DP  RH WIND       PRES   REMARKS
RICHMOND       PTCLDY    34  27  75 SW6       29.81R
CHESTERFIELD*  FAIR      32  18  55 SW3       29.83R
PETERSBURG*    CLEAR     33  28  83 SW6       29.83R
HANOVER        CLEAR     30  25  81 S3        29.82R
TAPPAHANNOCK*  PTCLDY    33  25  73 SW6       29.80R
QUINTON*       FAIR      33  27  76 W5        29.81R
CHARLOTTSVILLE CLEAR     38  24  57 VRB5      29.77R
GORDONSVILLE*  FAIR      28  26  91 SW3       29.78R
ORANGE*        MOCLDY    32  28  86 SW3       29.79R
LOUISA*        CLEAR     34  27  75 S3        29.77R
BUMPASS*       FAIR      29  26  88 CALM      29.78R
FARMVILLE*     CLEAR     35  28  76 SW3       29.81R
CREWE*         FAIR      30  27  86 CALM      29.82R
FORT PICKETT*  FAIR      30  26  83 SW7       29.82S
CHASE CITY*    FAIR      35  31  83 W5        29.84R
CLARKSVILLE*   FAIR      34  28  80 W5        29.84R
SOUTH HILL*    CLEAR     28  26  89 SW3       29.90S
LAWRENCEVILLE* FAIR      30  27  88 CALM      29.84R
EMPORIA*       CLEAR     32  28  86 SW6       29.86R
$$

VAZ088>098-251000-
SOUTHEAST VIRGINIA

CITY           SKY/WX    TMP DP  RH WIND       PRES   REMARKS
NORFOLK        CLEAR     36  27  69 W7        29.80R
VIRGINIA BEACH CLEAR     36  27  69 W8        29.79R
NORFOLK NAVAL  CLEAR     39  28  64 W14       29.82R
WEST POINT*    CLEAR     30  27  86 CALM      29.83R
SALUDA*        FAIR      32  27  81 CALM      29.79R
NEWPORT NEWS   CLEAR     35  27  72 W8        29.81R
LANGLEY AFB    CLEAR     34  28  77 W9        29.80R
FORT EUSTIS    CLEAR     33  28  82 NW3       29.80R
WILLIAMSBURG*    N/A    N/A N/A N/A MISG      29.82R
HR EXEC AP*    FAIR      30  27  86 W6        29.84R
FRANKLIN*      CLEAR     34  28  79 W7        29.84R
WAKEFIELD      CLEAR     35  26  69 W8        29.83R
$$

VAZ020-022-025-037-045-251000-
WEST CENTRAL AND SOUTHWEST VIRGINIA

CITY           SKY/WX    TMP DP  RH WIND       PRES   REMARKS
STAUNTON*      CLOUDY    36  26  66 S6        29.77S
WAYNESBORO*    CLOUDY    31  25  77 CALM      29.76R
HOT SPRINGS VA CLOUDY    27  27 100 W14       29.64R WCI  15
LYNCHBURG      FAIR      35  26  69 W6        29.83R
DANVILLE       CLEAR     31  25  78 S6        29.87R
SOUTH BOSTON*  FAIR      33  26  75 W8        29.86S
MARTINSVILLE   CLEAR     35  28  74 CALM      29.88S
ROANOKE        PTCLDY    37  25  61 S3        29.84R
BLACKSBURG     CLOUDY    33  28  80 W8        29.82R
DUBLIN*        CLOUDY    36  31  82 W9        29.82S
MARION*        CLEAR     30  27  86 W12       29.84R WCI  21
HILLSVILLE*    CLEAR     31  27  86 W6        29.80S
RICHLANDS*     FAIR      31  25  80 SW8       29.81S
WISE*          CLEAR     32  27  80 SW6       29.82F
ABINGDON*      CLEAR     31  28  86 W3        29.87R
$$

MDZ021>025-VAZ099-100-251000-
SOUTHERN MARYLAND AND THE DELMARVA PENINSULA

CITY           SKY/WX    TMP DP  RH WIND       PRES   REMARKS
PATUXENT RIVER PTCLDY    35  26  69 W12       29.76R
BAY BRIDGE APT   N/A     36  30  80 W7        29.74R
LEONARDTOWN    CLOUDY    34  28  80 W5        29.78S
DOVER          CLEAR     35  30  83 SW9       29.71R
GEORGETOWN     PTCLDY    36  28  73 W7        29.72S
EASTON         CLEAR     38  31  74 W6        29.77R
CAMBRIDGE      CLEAR     37  28  70 W7        29.74S
SALISBURY      PTCLDY    36  28  73 SW7       29.74R
OCEAN CITY     CLOUDY    36  28  73 W8        29.74R
WALLOPS ISLAND PTCLDY    35  31  85 W3        29.76R
ACCOMACK*      CLEAR     36  28  75 W6        29.77R
$$

NCZ012>017-030>032-251000-
NORTH CENTRAL AND EASTERN NORTH CAROLINA

CITY           SKY/WX    TMP DP  RH WIND       PRES   REMARKS
ROANOKE RAPIDS FAIR      32  28  86 SW5       29.87R
RALEIGH        CLEAR     32  26  78 CALM      29.87S
ELIZABETH CITY CLEAR     36  28  73 W9        29.82R
AHOSKIE*       CLEAR     33  27  79 CALM      29.86R
EDENTON*       CLEAR     38  31  76 W9        29.84R
CURRITUCK*     CLEAR     36  28  75 W7        29.81S
KILL DEVIL HLS CLEAR     40  31  69 W10G20    29.80R
MANTEO         CLEAR     39  30  70 W10G16    29.82S
CAPE HATTERAS  CLEAR     42  31  64 NW12G21   29.84R
TARBORO*       FAIR      36  28  74 W5        29.87S
GOLDSBORO      CLEAR     34  33  97 SW6       29.86S
WASHINGTON     CLEAR     35  29  79 CALM      29.86S
GREENVILLE     CLEAR     34  32  93 CALM      29.89S
NEW BERN       CLEAR     39  31  72 W5        29.88S
WILMINGTON     CLEAR     38  37  97 CALM      29.89F
$$

VAZ048-251000-
ELSEWHERE

CITY           SKY/WX    TMP DP  RH WIND       PRES   REMARKS
HARRISBURG PA  CLOUDY    36  26  67 W8        29.67R
BALTIMORE      MOCLDY    35  27  72 SW6       29.72R
ANNAPOLIS      CLEAR     36  26  67 CALM      29.74R
ANDREWS AFB    CLEAR     37  27  65 W8        29.74R
PHILADELPHIA   MOCLDY    34  26  72 W10       29.68R
HENDERSON NC   CLEAR     35  25  68 SW6       29.85R
GREENSBORO     CLEAR     31  24  75 NW7       29.85S
ROCKY MOUNT    CLEAR     35  27  72 W3        29.87R
$$

VAZ100-251000-
MARINE

STATION/POSITION TIME  TEMP    WIND        PRES    WAVE   SWELL
                       AIR SEA DIR/SP/G            HT/PER HT/PER
                 (UTC) (F)     (DEG/KT/KT) (MB)    (FT/S) (FT/S)
BRANDYWINE LGT   0900   37 37  280/ 17/ 19 1005.7S
CAPE MAY NJ      0900   37 38  290/ 12/ 17 1005.2F
LEWES DE         0900   36 38  270/  7/  9 1005.9F
15NM E FENWICK I 0900   38 42              1006.0R   4/11
OCEAN-CITY-INLET 0900   38 39  300/ 10/ 13 1006.5R
WACHAPREAGUE VA  0900   34 41  260/  2/  3 1007.8F
THOMAS POINT MD  0900   38 37  240/  8/  9 1008.3R
GOOSES REEF MD   0900   37     VRB 10/ 12  1006.7S
COVE POINT MD    0900   35     280/  9/ 11 1007.5S
SOLOMONS ISLAND  0900      38                N/A
BISHOPS HEAD MD  0900   38 37  280/  9/ 11 1006.9S
PINEY POINT MD   0900          290/ 11/ 12   N/A
POTOMAC MD       0900   37     300/ 10/ 12 1006.8S
CAMBRIDGE MD     0900   38 36  270/  8/ 12 1006.9S
LEWISETTA VA     0900   36 38  290/ 10/ 12 1008.1R
RAPPAHANNOCK LGT 0900          270/ 17/ 19 1008.5R
STINGRAY PT      0900   36     280/ 14/ 16 1008.8R
YORK RVR RNG VA  0900   38     280/ 14/ 16 1007.8R
JAMESTOWN VA     0900   36     310/ 12/ 14   N/A
DOMINION TERM VA 0900   37     300/  9/ 11 1009.1R
KIPTOPEKE VA     0900      46  300/ 15/ 19   N/A
CHES BAY BRIDGE  0900   39 42  260/ 17/ 20 1008.2R
CAPE HENRY VA    0900   37     260/  9/ 14 1007.4R
CHESAPEAKE LGHT  0800   40     290/ 19/ 21 1008.7R
WILLOUBY STN VA  0900   38     280/ 13/ 14 1009.3R
S CRANEY ISL VA  0900          260/  5/  9 1009.1R
CAPE HENRY BUOY  0900      45                N/A     4/10   2/11
1ST LANDING BUOY 0900   40     290/ 16/ 19 1008.3S
CAPE CHARLES BUO 0900      43                N/A     3/11   2/11
OFFSHORE WE BUOY 0900      47                N/A     5/ 5   3/11
64NM E OF VA BCH 0900   44 52  300/ 19/ 23 1007.5R   7/ 6   5/11
DUCK PIER NC     0900   40 43  280/ 17/ 20 1008.6R
44100 DUCK FRF   0900      45                N/A     4/11   2/11
44056 DUCK FRF   0900      43                N/A     3/11   2/11
OREGON INLET NC  0900   41 47  280/ 11/ 16 1009.4R
HATTERAS NC      0900   45 54  300/ 20/ 23 1010.8R
DIAMOND SHLS NC  0900   49 71  290/ 23/ 29 1009.7R   8/10   5/10


USA.gov is the U.S. government's official web portal to all federal, state and local government web resources and services.